STARLINK-4431, 53486

Orbit data source: Space-Track

STARLINK-4431, 53486 is a payload satellite owned by SpaceX/Seattle (US) in SSO that was launched on Fri, 12 Aug 2022 UTC via an FALCON 9 launch vehicle from the Air Force Western Test Range (AFWTR). Payload-class satellites include a variety of spacecraft equipped with specific instruments for various scientific and technological missions. These include communications satellites like Starlink; space stations such as the ISS; scientific satellites like the Hubble; Earth observation satellites from companies like Planet Labs, Umbra, and HawkEye 360; GPS; miniature CubeSats for education and research; and military/defense satellites.

Loading next visibility...
Identifier
53486, 2022-099X
Orbit
SSO
Country
Flag of USUS
Related business
Manufacturer
SpaceX/Seattle
Mission
Operational Commercial Communications
Bus & Motor
STARLINK, Unknown motor
Mass
300 kg wet, ~275 kg dry
Launch date (UTC)
2022-08-12 (3 years ago)
Launch vehicle
FALCON 9
Launch site
Air Force Western Test Range (AFWTR)
Object type
Payload
Rocket body
Debris
Shape & HBR
Box + 1 Pan, 10.1 m
Radar Cross Section
13.562 m², Large (>1 m²)

Expand to show TLE details & history
Last TLE update: 15 hours ago

TLE from 15 hours ago
0 STARLINK-4431
1 53486U 22099X   25293.33001514 -.00000230  00000-0 -13387-4 0  9999
2 53486  97.6033  52.8001 0002608  78.1982 281.9534 15.01259985174923
Epoch: 2025-10-20T07:55Z
TLE epoch observation values (Epoch: 2025-10-20T07:55:13.308Z)
Latitude
-0.00008°
Longitude
-95.03922°
Altitude
565.695 km
Speed
7.579 km/s
True Right ascension
03h 31m 12s
True Declination
0° 00' 00"
Sunlit
Object was in full shadow at epoch
Visualization orbit readout
Latitude
Unknown
Longitude
Unknown
Altitude
Unknown
Speed
Unknown
Apparent Right ascension
Unknown
Apparent Declination
Unknown
Sunlit
N/A
Visualization observer readout
Local Sidereal Time
18:16:01
Azimuth
Unknown
Elevation
Unknown
Doppler factor
Unknown
Orbital elements
Apogee altitude
561.819 km
Perigee altitude
558.2 km
Semi-major axis
6,938.146 km
Eccentricity
0.00026
Inclination
97.6033°
RAAN
52.8001°
Arg. of periapsis
78.1982°
True anomaly
281.92416°
Mean anomaly
281.9534°
Eccentric anomaly
281.93878°
Mean motion
3.75559 °/min
Orbital period
95.86 mins
BSTAR
-0.000013387
Loading maneuver chart data...
Computing Atmospheric mass density...
Loading historical data...
Loading historical data...
Loading historical data...
Loading historical data...
Loading historical data...
Loading historical data...
Loading historical data...

Documentation

Showing up to 5 results
|